Погода в Самсуне

Турция     41°17′25″N   36°20′01″E
темп.,
°C
ветер,
м/с
пор.,
м/с
влажн.,
%
обл.,
%
осадки,
мм/ч
давл.,
гПа
погр.,
м
8 мая, сб
сб800:00+14юз3376100 0.0 101530
03:00+15юз4469100 0.0 101345
06:00+14юз566793 0.0 101368
09:00+22юз475594 0.0 1011344
12:00+25зюз794566 0.0 10111016
15:00+26сз144262 0.0 10101577
18:00+16ссв1387100 3.2 1014230
21:00+14в1293100 4.0 101545
9 мая, вс
вс900:00+13в119890 6.1 101566
03:00+12с4699100 6.8 1014524
06:00+10сз81693100 8.9 1016931
09:00+9сз61290100 16.3 10221187
12:00+11ссз797797 3.3 10241257
15:00+12ссз786214 3.3 10251497
18:00+10ссз577226 0.1 10271201
21:00+6юз34877 0.1 1029119
10 мая, пн
пн1000:00+5зюз22875 0.0 102938
03:00+4зюз22865 0.1 102834
06:00+4юз33835 0.0 102856
09:00+10ссз116440 0.0 1027908
12:00+11ссв436349 0.3 10261139
15:00+11св34593 0.3 10251066
18:00+10св34682 0.0 1025707
21:00+6зюз11830 0.0 102617
11 мая, вт
вт1100:00+5зюз33852 0.0 102435
03:00+4юз33815 0.0 102336
06:00+4юз33725 0.0 102249
09:00+10ююв115027 0.0 1021637
12:00+13св32515 0.0 1019979
15:00+12св32645 0.0 1019613
18:00+10всв237196 0.0 1018461
21:00+6ююз118282 0.0 101831
12 мая, ср
ср1200:00+6юз227929 0.0 101724
03:00+6юз32690 0.0 101524
06:00+7юз22720 0.0 101527
09:00+13в11600 0.0 1013382
12:00+16всв33620 0.0 1013597
15:00+16всв42723 0.0 1013377
18:00+13всв23811 0.0 1013312
21:00+10ююз22904 0.0 101312